Back to catalog

CZ-6A R/B

AlivePO
NORAD 61570·ROCKET BODY·🇨🇳 China

Launched Oct 15, 2024 from Taiyuan Satellite Launch Center

Loading…

Next Passes (next 24 hours)

TLE

FreshSource: Space-Track

Epoch: Sep 14, 2026, 21:03 UTC

1 61570U 24185U   26257.87732222  .00000256  00000-0  55999-4 0  9998
2 61570  89.0243  44.6033 0096004 248.7389 110.3546 14.51824178100672

Track CZ-6A R/B in real time with AllMySat

Download on the App Store